Regional Weather Roundup
Issued by NWS Jackson, KY

Home | Current Version | Previous Version | Graphics & Text | Print | Product List | Glossary On
Versions: 1 2 3 4 5 6 7 8 9 10 11 12 13 14 15 16 17 18 19 20 21 22 23 24 25 26 27 28 29 30 31 32 33 34 35 36 37 38 39 40 41 42 43 44 45 46 47 48 49 50
000
ASUS43 KJKL 201710
RWRJKL

EAST KENTUCKY HOURLY WEATHER ROUNDUP
NATIONAL WEATHER SERVICE JACKSON KY
100 PM EDT WED AUG 20 2014

NOTE: "FAIR" INDICATES FEW OR NO CLOUDS BELOW 12,000 FEET WITH
NO SIGNIFICANT WEATHER AND/OR OBSTRUCTIONS TO VISIBILITY.

* THESE REPORTS ARE NOT UNDER NWS QUALITY CONTROL AND MAY NOT
  REPORT WEATHER SUCH AS PRECIPITATION AND FOG.

KYZ079-080-083-085-087-088-110-112-115-119-120-201800
...EASTERN KENTUCKY...

CITY           SKY/WX    TMP DP  RH WIND       PRES   REMARKS
JACKSON        MOSUNNY   81  72  74 CALM      30.04R
LONDON         PTSUNNY   86  71  60 SW8       30.03S HX  91
SOMERSET*      PTSUNNY   84  72  65 W10       30.02S
MONTICELLO*    MOSUNNY   88  76  67 SW7       30.03S HX  99
WILLIAMSBURG*  MOSUNNY   84  73  70 SW7       30.03S HX  91
MIDDLESBORO*   MOSUNNY   82  72  73 S7        30.05S
HARLAN APT*    PTSUNNY   77  70  78 MISG      30.06F
HAZARD APT*    PTSUNNY   81  72  74 SW8       30.03S
BLACK MTN*       N/A     70  66  88 SW6         N/A
PIKEVILLE APT* PTSUNNY   81  72  74 S5        30.03F
BIG SANDY*     MOSUNNY   81  71  72 W6        30.02S
MOREHEAD APT*  PTSUNNY   81  73  78 VRB7      30.02S
$$

KYZ035-036-041-042-044-050-067-078-099-201800
...CENTRAL KENTUCKY...

CITY           SKY/WX    TMP DP  RH WIND       PRES   REMARKS
MT STERLING*   CLOUDY    81  73  78 W5        30.02S
FLEMING/MASON* MOSUNNY   82  73  74 SW3       30.00S
DANVILLE*      CLOUDY    84  73  70 SW7       30.02R HX  91
RICHMOND*      PTSUNNY   82  72  69 SW6       30.01S
LEXINGTON      MOSUNNY   85  72  65 SW7       30.00S HX  91
FRANKFORT      SUNNY     84  72  67 SW5       29.97F
$$

KYZ091>093-OHZ055-061-077-WVZ005-015-034-035-042-201800
...SOUTHERN OHIO/WEST VIRGINIA...

CITY           SKY/WX    TMP DP  RH WIND       PRES   REMARKS
COVINGTON      MOSUNNY   83  68  60 W8        29.98R
COLUMBUS       MOSUNNY   83  67  58 S9        29.93S
DAYTON         MOSUNNY   83  65  54 W14G22    29.96S
WILMINGTON     MOSUNNY   81  69  67 SW12      29.96S
HUNTINGTON     PTSUNNY   78  70  76 SW7       29.98S
CHARLESTON     PTSUNNY   80  69  69 SW5       29.99F
PINEVILLE*     MOSUNNY   80  71  73 MISG      30.09F
BECKLEY        CLOUDY    74  62  66 SW10G21   30.08R
BLUEFIELD      CLOUDY    75  63  66 W10       30.11R
$$

VAZ002-007-008-TNZ017-027-036-066-071-201800
...SOUTHWEST VIRGINIA/EAST TENNESSEE...

CITY           SKY/WX    TMP DP  RH WIND       PRES   REMARKS
WISE*          MOSUNNY   79  70  73 SW14      30.12F
JONESVILLE*      N/A     75  72  88 CALM      30.09F
ABINGDON*      MOSUNNY   76  69  79 W5        30.10F
BRISTOL        CLOUDY    75  63  66 VRB5      30.08S
KNOXVILLE      PTSUNNY   84  75  74 S7        30.04S HX  92
OAK RIDGE      MOSUNNY   86  73  65 W5        30.05S HX  93
CROSSVILLE     MOSUNNY   83  72  69 W8        30.10S
NASHVILLE      MOSUNNY   93  75  55 W8        29.99F HX 104
$$

...KEY TO REMARKS...
VSB - VISIBILITY IN MILES
WCI - WIND CHILL INDEX
HX  - HEAT INDEX

$$



USA.gov is the U.S. government's official web portal to all federal, state and local government web resources and services.